Home   Weather   Hommelvik   Past weeks

Flag for Norway Past Weather in Hommelvik, Norway — Yesterday and Last 2 Weeks

Now
57 °F

Light rain. Overcast.


Feels Like: 55 °F
Forecast: 48 / 55 °F
Wind: 8 mph from Southwest

Location: Trondheim / Vaernes

Current Time: Aug 20, 2017 at 5:31:31 pm

Latest Report: Aug 20, 2017 at 4:00 pm


Visibility: 9 mi

Pressure: 29.67 "Hg

Humidity: 88%

Dew Point: 53 °F

Location of HommelvikLocation

Past Weather in Hommelvik — Graph

°F

Hommelvik Temperature Yesterday

Maximum temperature yesterday: 67 °F (at 12:00 pm)
Minimum temperature yesterday: 56 °F (at 9:00 pm)
Average temperature yesterday: 60 °F

High & Low Weather Summary for the Past Weeks

 TemperatureHumidityPressure
High70 °F (Aug 11, 1:00 pm)97% (Aug 17, 5:00 am)30.17 "Hg (Aug 17, 5:00 am)
Low45 °F (Aug 15, 5:00 am)43% (Aug 15, 6:00 pm)29.41 "Hg (Aug 19, 7:00 pm)
Average58 °F76%29.80 "Hg
* Reported Aug 5 4:00 pm — Aug 20 4:00 pm, Hommelvik. Weather by CustomWeather, © 2017

Note: Actual official high and low records may vary slightly from our data, if they occured in-between our weather recording intervals... More about our weather records

Advertising

Hommelvik Weather History for the Previous 24 Hours

Scroll right to see more
 ConditionsComfort  
Time TempWeatherWind HumidityBarometerVisibility
4:00 pm
Sun, Aug 20
57 °FLight rain. Overcast.8 mph88%29.67 "Hg9 mi
3:00 pm56 °FDrizzle. Overcast.8 mph86%29.65 "Hg7 mi
2:00 pm56 °FLight rain. Overcast.8 mph84%29.63 "Hg25 mi
1:00 pm55 °FRain. Overcast.8 mph86%29.61 "Hg7 mi
12:00 pm56 °FLight rain. Overcast.10 mph84%29.59 "Hg11 mi
11:00 am55 °FRain. Overcast.3 mph83%29.58 "Hg9 mi
10:00 am55 °FLight rain. Overcast.3 mph85%29.57 "Hg9 mi
9:00 am55 °FRain. Overcast.5 mph86%29.54 "Hg9 mi
8:00 am55 °FRain. Overcast.7 mph86%29.50 "Hg11 mi
7:00 am55 °FRain. Overcast.7 mph87%29.50 "Hg10 mi
6:00 am55 °FLight rain. Overcast.8 mph85%29.47 "Hg14 mi
5:00 am55 °FLight rain. Overcast.9 mph84%29.47 "Hg13 mi
4:00 am55 °FPassing clouds.9 mph84%29.44 "Hg16 mi
3:00 am55 °FDrizzle. Overcast.9 mph86%29.44 "Hg16 mi
2:00 am55 °FLight rain. Overcast.9 mph86%29.44 "Hg12 mi
1:00 am55 °FLight rain. Overcast.7 mph89%29.44 "Hg10 mi
12:00 am56 °FLight rain. Overcast.9 mph85%29.44 "Hg14 mi
11:00 pm
Sat, Aug 19
56 °FRain. Overcast.8 mph85%29.44 "Hg12 mi
10:00 pm56 °FLight rain. Overcast.8 mph88%29.44 "Hg17 mi
9:00 pm56 °FRain. Fog.8 mph96%29.41 "Hg4 mi
8:00 pm57 °FRain showers. Overcast.2 mph90%29.41 "Hg31 mi
7:00 pm58 °FPassing clouds.1 mph89%29.41 "Hg25 mi
6:00 pm59 °FLight rain. Passing clouds.3 mph91%29.44 "Hg28 mi
5:00 pmN/AOvercast.N/AN/AN/A14 mi
Weather by CustomWeather, © 2017

See weather overviewHow to use our weather pages